Amateur Radio Satellites - All Passes

Search period start: 19 June 2013 21:29
Search period end: 20 June 2013 21:29
Location: Unspecified, 42.0334°N, 93.6656°W

Satellite Date Start Highest point End Downlink Frequencies (MHz)
Time Altitude Azimuth
Saudisat 1A 19 Jun 21:45:54 21:49:23 22° 112° (ESE) 21:52:55 436.775 MHz
RS-15 19 Jun 21:56:43 22:07:33 65° 245° (WSW) 22:18:13 29.354 - 29.394 USB, Beacon 29.352 USB
OPAL 19 Jun 22:03:25 22:07:27 25° 63° (ENE) 22:11:28 ?
MaSat-1 19 Jun 22:03:53 22:05:26 11° 308° (NW) 22:06:52 437.345 MHz
Oscar 11 19 Jun 22:40:19 22:44:33 50° 260° (W) 22:48:50 145.825 FM, Beacon 2401.500 USB
ISS 19 Jun 22:47:04 22:50:18 63° 218° (SW) 22:53:32 145.800 FM
JAS-2 19 Jun 22:53:48 23:00:37 39° 263° (W) 23:06:51 435.800 - 435.900 CW/SSB, 435.910 FM
KITSAT 1 19 Jun 22:59:52 23:02:46 12° 5° (N) 23:05:41 435.175 FM
HO-68 19 Jun 23:05:32 23:11:28 28° 265° (W) 23:17:27 435.675 MHz FM
Saudisat 1A 19 Jun 23:24:25 23:28:48 45° 309° (NW) 23:33:15 436.775 MHz
Oscar 10/S400 19 Jun 23:25:12 06:41:26 52° 112° (ESE) 09:35:13 145.825 - 145.975 CW/USB, Beacon 145.810 USB
OPAL 19 Jun 23:41:25 23:46:08 41° 259° (W) 23:50:51 ?
PANSAT 19 Jun 23:43:39 23:44:41 11° 182° (S) 23:45:43 not established
Sapphire 19 Jun 23:54:02 23:56:02 12° 102° (ESE) 23:58:02 437.095 MHz 1200 baud AX-25 AFSK
RS-15 20 Jun 00:13:50 00:17:27 12° 266° (W) 00:21:04 29.354 - 29.394 USB, Beacon 29.352 USB
SO-50 20 Jun 00:36:11 00:39:10 17° 110° (ESE) 00:42:07 436.795 FM
KITSAT 1 20 Jun 00:55:23 01:01:49 25° 35° (NE) 01:08:12 435.175 FM
PCSat 20 Jun 00:58:52 01:04:04 50° 114° (ESE) 01:09:18 145.825 MHz
Sapphire 20 Jun 01:33:13 01:38:38 89° 299° (WNW) 01:44:06 437.095 MHz 1200 baud AX-25 AFSK
Oscar 19 20 Jun 01:42:37 01:43:30 10° 88° (E) 01:44:23 437.125 CW, 437.150 USB
ITAMSAT 1 20 Jun 02:07:09 02:10:17 16° 91° (E) 02:13:24 435.822 SSB
AO-27 20 Jun 02:08:17 02:11:36 17° 91° (E) 02:14:54 436.795 MHz FM
SO-50 20 Jun 02:14:36 02:19:20 61° 306° (NW) 02:23:59 436.795 FM
Oscar 16 20 Jun 02:24:44 02:29:22 33° 97° (E) 02:33:58 437.025 USB, Beacon 2401.1428
AO-Echo 20 Jun 02:39:00 02:40:56 12° 89° (E) 02:42:52 ?
Uribyol 2 20 Jun 02:39:21 02:44:04 33° 97° (E) 02:48:43 436.500 FM
PCSat 20 Jun 02:43:11 02:47:45 27° 312° (NW) 02:52:21 145.825 MHz
KITSAT 1 20 Jun 02:50:18 02:58:30 83° 58° (ENE) 03:06:38 435.175 FM
Oscar 19 20 Jun 03:18:24 03:23:33 89° 285° (WNW) 03:28:40 437.125 CW, 437.150 USB
Sapphire 20 Jun 03:19:21 03:22:51 17° 319° (NW) 03:26:22 437.095 MHz 1200 baud AX-25 AFSK
ITAMSAT 1 20 Jun 03:45:03 03:50:14 64° 287° (WNW) 03:55:23 435.822 SSB
AO-27 20 Jun 03:46:22 03:51:32 61° 288° (WNW) 03:56:40 436.795 MHz FM
Gurwin Techsat 1B 20 Jun 03:47:11 03:50:57 19° 92° (E) 03:54:42 435.225 FM
UOSAT-12 20 Jun 03:51:24 03:55:23 32° 115° (ESE) 03:59:25 437.025 FM, 437.400 FM
SO-50 20 Jun 03:59:04 04:00:54 12° 326° (NW) 04:02:43 436.795 FM
Oscar 16 20 Jun 04:04:13 04:08:39 30° 293° (WNW) 04:13:04 437.025 USB, Beacon 2401.1428
AO-Echo 20 Jun 04:15:06 04:20:17 83° 285° (WNW) 04:25:33 ?
Uribyol 2 20 Jun 04:18:55 04:23:29 31° 293° (WNW) 04:28:00 436.500 FM
AO-7 20 Jun 04:29:25 04:33:10 13° 87° (E) 04:36:53 29.400 - 29.500 MHz
Uosat F 20 Jun 04:35:28 04:40:28 56° 101° (E) 04:45:25 435.120 FM
TMSAT-1 20 Jun 04:45:10 04:50:15 44° 98° (E) 04:55:17 436.925 FM
KITSAT 1 20 Jun 04:47:13 04:52:56 22° 257° (WSW) 04:58:40 435.175 FM
Oscar 19 20 Jun 05:00:12 05:02:07 12° 302° (WNW) 05:04:02 437.125 CW, 437.150 USB
MaSat-1 20 Jun 05:00:41 05:02:45 21° 57° (ENE) 05:04:47 437.345 MHz
Gurwin Techsat 1B 20 Jun 05:26:05 05:31:16 54° 288° (WNW) 05:36:25 435.225 FM
UOSAT-12 20 Jun 05:31:28 05:35:31 32° 313° (NW) 05:39:37 437.025 FM, 437.400 FM
AO-Echo 20 Jun 05:56:34 05:58:17 12° 301° (WNW) 06:00:01 ?
STRAND 1 20 Jun 06:08:34 06:13:16 38° 68° (ENE) 06:18:00 ?
Saudisat 1A 20 Jun 06:12:11 06:15:52 23° 44° (NE) 06:19:29 436.775 MHz
Uosat F 20 Jun 06:15:22 06:18:50 19° 298° (WNW) 06:22:17 435.120 FM
AO-7 20 Jun 06:18:54 06:27:18 74° 106° (ESE) 06:35:38 29.400 - 29.500 MHz
TMSAT-1 20 Jun 06:25:40 06:29:55 25° 296° (WNW) 06:34:09 436.925 FM
Hamsat 20 Jun 07:10:00 07:12:28 15° 90° (E) 07:14:55 145.90 MHz
STRAND 1 20 Jun 07:48:16 07:52:33 27° 265° (W) 07:56:52 ?
Saudisat 1A 20 Jun 07:51:27 07:55:48 47° 242° (WSW) 08:00:03 436.775 MHz
AO-7 20 Jun 08:12:40 08:19:22 28° 305° (NW) 08:26:03 29.400 - 29.500 MHz
Sapphire 20 Jun 08:38:51 08:42:02 16° 39° (NE) 08:45:13 437.095 MHz 1200 baud AX-25 AFSK
JAS-1B 20 Jun 08:42:10 08:48:02 69° 103° (ESE) 08:54:45 435.800 - 435.900 CW/SSB
Hamsat 20 Jun 08:44:35 08:48:51 51° 287° (WNW) 08:53:03 145.90 MHz
SO-67 20 Jun 09:00:21 09:03:58 86° 102° (ESE) 09:07:33 435.3500 MHz FM
SO-50 20 Jun 09:06:38 09:10:00 20° 41° (NE) 09:13:18 436.795 FM
PCSat 20 Jun 09:46:24 09:51:37 45° 54° (NE) 09:56:47 145.825 MHz
JAS-2 20 Jun 10:03:33 10:07:58 26° 94° (E) 10:12:14 435.800 - 435.900 CW/SSB, 435.910 FM
RS-15 20 Jun 10:11:49 10:19:37 21° 99° (E) 10:27:12 29.354 - 29.394 USB, Beacon 29.352 USB
Sapphire 20 Jun 10:20:55 10:26:23 79° 60° (ENE) 10:31:49 437.095 MHz 1200 baud AX-25 AFSK
Oscar 11 20 Jun 10:28:12 10:31:59 28° 96° (E) 10:35:44 145.825 FM, Beacon 2401.500 USB
HO-68 20 Jun 10:31:04 10:38:08 56° 102° (ESE) 10:45:10 435.675 MHz FM
JAS-1B 20 Jun 10:34:23 10:38:18 19° 299° (WNW) 10:42:29 435.800 - 435.900 CW/SSB
SO-50 20 Jun 10:46:32 10:51:00 60° 240° (WSW) 10:55:24 436.795 FM
PCSat 20 Jun 11:30:18 11:34:48 27° 252° (WSW) 11:39:17 145.825 MHz
JAS-2 20 Jun 11:48:19 11:53:15 37° 293° (WNW) 11:57:57 435.800 - 435.900 CW/SSB, 435.910 FM
OPAL 20 Jun 11:50:32 11:55:20 48° 102° (ESE) 12:00:10 ?
Oscar 11 20 Jun 12:04:26 12:08:08 27° 292° (WNW) 12:11:49 145.825 FM, Beacon 2401.500 USB
Sapphire 20 Jun 12:06:18 12:09:06 14° 257° (WSW) 12:11:54 437.095 MHz 1200 baud AX-25 AFSK
RS-15 20 Jun 12:18:17 12:30:18 82° 119° (ESE) 12:41:48 29.354 - 29.394 USB, Beacon 29.352 USB
HO-68 20 Jun 12:19:23 12:25:27 31° 300° (WNW) 12:31:30 435.675 MHz FM
UOSAT-12 20 Jun 12:20:19 12:24:32 34° 48° (NE) 12:28:44 437.025 FM, 437.400 FM
Oscar 19 20 Jun 12:58:38 13:02:05 18° 62° (ENE) 13:05:32 437.125 CW, 437.150 USB
ITAMSAT 1 20 Jun 13:25:18 13:29:34 26° 65° (ENE) 13:33:51 435.822 SSB
AO-27 20 Jun 13:26:37 13:30:58 28° 65° (ENE) 13:35:20 436.795 MHz FM
OPAL 20 Jun 13:30:12 13:33:55 22° 299° (WNW) 13:37:39 ?
Oscar 16 20 Jun 13:42:04 13:47:04 51° 71° (ENE) 13:52:04 437.025 USB, Beacon 2401.1428
AO-Echo 20 Jun 13:52:37 13:55:23 16° 61° (ENE) 13:58:12 ?
Uribyol 2 20 Jun 13:57:35 14:02:38 53° 71° (ENE) 14:07:44 436.500 FM
UOSAT-12 20 Jun 14:00:36 14:04:38 30° 246° (WSW) 14:08:40 437.025 FM, 437.400 FM
Uosat F 20 Jun 14:15:07 14:16:16 11° 57° (ENE) 14:17:25 435.120 FM
RS-15 20 Jun 14:33:22 14:44:00 37° 325° (NW) 14:54:16 29.354 - 29.394 USB, Beacon 29.352 USB
Oscar 19 20 Jun 14:35:52 14:40:58 60° 259° (W) 14:46:05 437.125 CW, 437.150 USB
ITAMSAT 1 20 Jun 15:03:58 15:08:51 41° 262° (W) 15:13:48 435.822 SSB
AO-27 20 Jun 15:05:28 15:10:19 39° 262° (W) 15:15:12 436.795 MHz FM
Gurwin Techsat 1B 20 Jun 15:08:31 15:13:10 32° 67° (ENE) 15:17:50 435.225 FM
Oscar 16 20 Jun 15:23:00 15:26:43 20° 268° (W) 15:30:26 437.025 USB, Beacon 2401.1428
AO-7 20 Jun 15:28:18 15:34:31 24° 52° (NE) 15:40:45 29.400 - 29.500 MHz
AO-Echo 20 Jun 15:29:00 15:33:39 61° 259° (W) 15:38:27 ?
ISS 20 Jun 15:29:35 15:32:32 32° 137° (SE) 15:35:30 145.800 FM
Uribyol 2 20 Jun 15:38:43 15:42:26 20° 268° (W) 15:46:11 436.500 FM
Uosat F 20 Jun 15:49:13 15:54:14 81° 75° (ENE) 15:59:17 435.120 FM
TMSAT-1 20 Jun 16:06:21 16:11:37 71° 74° (ENE) 16:16:55 436.925 FM
Gurwin Techsat 1B 20 Jun 16:48:18 16:53:04 34° 264° (W) 16:57:53 435.225 FM
RS-15 20 Jun 16:52:40 17:01:00 22° 359° (N) 17:09:06 29.354 - 29.394 USB, Beacon 29.352 USB
ISS 20 Jun 17:06:09 17:09:12 35° 334° (NNW) 17:12:15 145.800 FM
AO-7 20 Jun 17:18:00 17:26:21 85° 252° (WSW) 17:34:47 29.400 - 29.500 MHz
KITSAT 1 20 Jun 17:18:40 17:26:26 55° 113° (ESE) 17:34:17 435.175 FM
Uosat F 20 Jun 17:31:59 17:33:38 12° 271° (W) 17:35:18 435.120 FM
TMSAT-1 20 Jun 17:49:13 17:52:05 15° 270° (W) 17:54:57 436.925 FM
Hamsat 20 Jun 18:05:36 18:07:26 13° 62° (ENE) 18:09:18 145.90 MHz
STRAND 1 20 Jun 18:20:57 18:22:51 12° 89° (E) 18:24:46 ?
ISS 20 Jun 18:44:30 18:46:36 16° 354° (N) 18:48:42 145.800 FM
RS-15 20 Jun 19:07:58 19:18:01 36° 34° (NE) 19:27:45 29.354 - 29.394 USB, Beacon 29.352 USB
KITSAT 1 20 Jun 19:14:41 19:22:07 39° 314° (NW) 19:29:39 435.175 FM
AO-7 20 Jun 19:15:20 19:20:16 17° 271° (W) 19:25:15 29.400 - 29.500 MHz
JAS-1B 20 Jun 19:28:10 19:34:54 61° 72° (ENE) 19:40:46 435.800 - 435.900 CW/SSB
MaSat-1 20 Jun 19:30:37 19:35:55 44° 113° (ESE) 19:40:04 437.345 MHz
SO-67 20 Jun 19:36:40 19:39:52 31° 72° (ENE) 19:43:05 435.3500 MHz FM
Hamsat 20 Jun 19:38:37 19:42:56 68° 259° (W) 19:47:19 145.90 MHz
STRAND 1 20 Jun 19:57:29 20:02:40 81° 285° (WNW) 20:07:49 ?
JAS-2 20 Jun 20:16:53 20:21:15 18° 59° (ENE) 20:25:20 435.800 - 435.900 CW/SSB, 435.910 FM
ISS 20 Jun 20:21:44 20:24:12 19° 15° (NNE) 20:26:40 145.800 FM
HO-68 20 Jun 21:00:01 21:06:40 44° 65° (ENE) 21:13:22 435.675 MHz FM
SO-67 20 Jun 21:11:14 21:13:25 15° 268° (W) 21:15:36 435.3500 MHz FM
MaSat-1 20 Jun 21:13:50 21:17:45 22° 303° (WNW) 21:21:01 437.345 MHz
KITSAT 1 20 Jun 21:16:01 21:20:15 15° 342° (NNW) 21:24:30 435.175 FM

Developed and maintained by Chris Peat, Heavens-Above GmbH. Please read the updated FAQ before sending e-mail. Imprint. DLR
